Alamosa, CO

7:15 AM MST on February 24, 2018 (GMT -0700)
San Luis Valley Regional / Bergman Field

Weather History for KALS - May, 2014

Change the Weather History Date:

Saturday, May 10, 2014

  Actual Average Record
Temperature  
Mean Temperature 49 °F 50 °F  
Max Temperature 71 °F 67 °F 78 °F (2000)
Min Temperature 26 °F 32 °F 17 °F (1948)
Degree Days  
Heating Degree Days 16 15  
Month to date heating degree days 173 168  
Since 1 July heating degree days 8282 8168  
Cooling Degree Days 0 0  
Month to date cooling degree days 0 0  
Year to date cooling degree days 0 0  
Moisture  
Dew Point 21 °F    
Average Humidity 45    
Maximum Humidity 75    
Minimum Humidity 15    
Precipitation  
Precipitation 0.00 in 0.02 in 0.70 in (2017)
Month to date precipitation T 0.20  
Year to date precipitation 1.58 1.84  
Snow  
Snow 0.00 in 0.10 in 1.00 in (1992)
Month to date snowfall T 0.6  
Since 1 July snowfall 38.5 27.3  
Snow Depth 0.00 in    
Sea Level Pressure  
Sea Level Pressure 29.74 in    
Wind  
Wind Speed 10 mph (SW)    
Max Wind Speed 29 mph    
Max Gust Speed 36 mph    
Visibility 10 miles    
Events      
T = Trace of Precipitation, MM = Missing Value Source: NWS Daily Summary

Daily Weather History Graph

Daily Weather History Graph

Search for Another Location

Airport or City:

Trip Planner

Search our weather history database for the weather conditions in past years. The results will help you decide how hot, cold, wet, or windy it might be!

Date:

Astronomy

May. 10, 2014 Rise Set
Actual Time 5:58 AM MDT 8:01 PM MDT
Civil Twilight 5:30 AM MDT 8:30 PM MDT
Nautical Twilight 4:54 AM MDT 9:05 PM MDT
Astronomical Twilight 4:17 AM MDT 9:43 PM MDT
Moon 4:04 PM MDT (5/10) 3:27 AM MDT (5/10)
Length of Visible Light 15h 00m
Length of Day
14h 02m
Waxing Gibbous, 82% of the Moon is Illuminated
May 10
Waxing Gibbous
May 14
Full
May 21
Last Quarter
May 28
New
Jun 5
First Quarter

Hourly Weather History & Observations

Time (MDT) Temp. Windchill Dew Point Humidity Pressure Visibility Wind Dir Wind Speed Gust Speed Precip Events Conditions
12:52 AM 37.9 °F - 19.9 °F 48% 29.86 in 10.0 mi Calm Calm - N/A   Clear
1:52 AM 39.0 °F 35.7 °F 21.0 °F 49% 29.82 in 10.0 mi NNE 4.6 mph - N/A   Partly Cloudy
2:52 AM 32.0 °F 27.5 °F 19.0 °F 59% 29.85 in 10.0 mi WSW 4.6 mph - N/A   Partly Cloudy
3:52 AM 33.1 °F 28.7 °F 19.9 °F 59% 29.84 in 10.0 mi WSW 4.6 mph - N/A   Overcast
4:52 AM 28.4 °F - 19.4 °F 69% 29.99 in 10.0 mi Calm Calm - N/A   Clear
5:52 AM 27.0 °F 19.5 °F 19.0 °F 72% 29.88 in 10.0 mi South 6.9 mph - N/A   Clear
6:52 AM 32.0 °F - 19.9 °F 61% 29.88 in 10.0 mi Calm Calm - N/A   Clear
7:52 AM 42.1 °F 39.2 °F 21.9 °F 45% 29.85 in 10.0 mi SW 4.6 mph - N/A   Clear
8:52 AM 50.0 °F - 25.0 °F 38% 29.84 in 10.0 mi SE 4.6 mph - N/A   Clear
9:52 AM 57.9 °F - 23.0 °F 26% 29.79 in 10.0 mi ESE 9.2 mph - N/A   Clear
10:52 AM 62.1 °F - 19.9 °F 20% 29.77 in 10.0 mi South 10.4 mph - N/A   Clear
11:52 AM 64.9 °F - 21.0 °F 19% 29.72 in 10.0 mi SW 8.1 mph 17.3 mph N/A   Partly Cloudy
12:52 PM 66.9 °F - 17.1 °F 15% 29.67 in 10.0 mi SSW 18.4 mph 28.8 mph N/A   Partly Cloudy
1:52 PM 70.0 °F - 19.9 °F 15% 29.64 in 10.0 mi WSW 18.4 mph 34.5 mph N/A   Clear
2:52 PM 66.0 °F - 21.0 °F 18% 29.66 in 10.0 mi SSW 15.0 mph 26.5 mph N/A   Overcast
3:52 PM 64.9 °F - 21.0 °F 19% 29.64 in 10.0 mi SW 17.3 mph 24.2 mph N/A   Mostly Cloudy
4:52 PM 66.0 °F - 21.0 °F 18% 29.64 in 10.0 mi WSW 19.6 mph 28.8 mph N/A   Mostly Cloudy
5:52 PM 64.9 °F - 21.0 °F 19% 29.65 in 10.0 mi SW 24.2 mph - N/A   Mostly Cloudy
6:52 PM 64.0 °F - 19.0 °F 18% 29.61 in 10.0 mi WSW 25.3 mph 32.2 mph N/A   Partly Cloudy
7:52 PM 60.1 °F - 21.0 °F 22% 29.59 in 10.0 mi WSW 13.8 mph - N/A   Clear
8:52 PM 53.6 °F - 24.8 °F 33% 29.80 in 10.0 mi WSW 8.1 mph - N/A   Clear
9:52 PM 50.0 °F - 26.1 °F 39% 29.57 in 10.0 mi West 6.9 mph - N/A   Clear
10:52 PM 45.0 °F 41.2 °F 27.0 °F 49% 29.57 in 10.0 mi East 6.9 mph - N/A   Clear
11:52 PM 42.8 °F 36.6 °F 26.6 °F 53% 29.77 in 10.0 mi East 11.5 mph - N/A   Clear